Copper Harbor, MI

4:27 AM EST on February 11, 2016 (GMT -0500)
Copper Harbor

Weather History for KP59 - December, 2013

Change the Weather History Date:

Tuesday, December 10, 2013

  Actual Average Record
Temperature  
Mean Temperature 8 °F -  
Max Temperature 15 °F 32 °F 43 °F (2015)
Min Temperature 1 °F 23 °F 1 °F (2013)
Degree Days  
Heating Degree Days 57    
Moisture  
Dew Point 4 °F    
Average Humidity 78    
Maximum Humidity 88    
Minimum Humidity 67    
Precipitation  
Precipitation 0.02 in - - ()
Sea Level Pressure  
Sea Level Pressure 29.88 in    
Wind  
Wind Speed 14 mph (NW)    
Max Wind Speed 30 mph    
Max Gust Speed 38 mph    
Averages and records for this station are not official NWS values.
T = Trace of Precipitation, MM = Missing Value Source: NWS Daily Summary

Daily Weather History Graph

Daily Weather History Graph

Search for Another Location

Airport or City:

Trip Planner

Search our weather history database for the weather conditions in past years. The results will help you decide how hot, cold, wet, or windy it might be!

Date:

Astronomy

Dec. 10, 2013 Rise Set
Actual Time 8:28 AM EST 5:00 PM EST
Civil Twilight 7:52 AM EST 5:36 PM EST
Nautical Twilight 7:13 AM EST 6:15 PM EST
Astronomical Twilight 6:36 AM EST 6:52 PM EST
Moon 1:23 PM EST (12/10) 1:22 AM EST (12/10)
Length of Visible Light 9h 43m
Length of Day
8h 32m
First Quarter, 61% of the Moon is Illuminated
Dec 10
First Quarter
Dec 17
Full
Dec 25
Last Quarter
Jan 1
New
Jan 7
First Quarter

Hourly Weather History & Observations

Time (EST) Temp. Windchill Dew Point Humidity Pressure Visibility Wind Dir Wind Speed Gust Speed Precip Events Conditions
12:51 AM 10.9 °F -3.4 °F 5.0 °F 77% 29.91 in - NNW 11.5 mph 28.8 mph N/A   Unknown
1:51 AM 5.0 °F -9.1 °F 1.9 °F 87% 29.91 in - WSW 9.2 mph 17.3 mph 0.01 in   Unknown
2:51 AM 3.0 °F -13.3 °F -0.9 °F 84% 29.92 in - WSW 11.5 mph 21.9 mph N/A   Unknown
3:51 AM 3.0 °F -12.5 °F -2.9 °F 76% 29.91 in - WSW 10.4 mph 20.7 mph N/A   Unknown
4:51 AM 1.0 °F -17.3 °F -5.1 °F 75% 29.88 in - WSW 13.8 mph 23.0 mph N/A   Unknown
5:51 AM 1.0 °F -14.0 °F -6.0 °F 72% 29.87 in - WSW 9.2 mph 17.3 mph N/A   Unknown
6:51 AM 1.0 °F -15.8 °F -6.0 °F 72% 29.86 in - WSW 11.5 mph 18.4 mph N/A   Unknown
7:51 AM 1.9 °F -10.6 °F -5.1 °F 72% 29.84 in - SW 6.9 mph - N/A   Unknown
8:51 AM 1.9 °F -13.8 °F -5.1 °F 72% 29.82 in - SW 10.4 mph - N/A   Unknown
9:51 AM 3.9 °F -3.4 °F -4.0 °F 70% 29.82 in - Variable 3.5 mph - N/A   Unknown
10:51 AM 10.0 °F 0.4 °F 1.0 °F 67% 29.81 in - West 5.8 mph - N/A   Unknown
11:51 AM 12.9 °F 5.2 °F 6.1 °F 74% 29.80 in - Variable 4.6 mph - N/A   Unknown
12:30 PM 15.8 °F -1.1 °F 12.2 °F 86% 29.72 in - North 19.6 mph - N/A   Unknown
12:51 PM 15.1 °F -1.6 °F 10.9 °F 84% 29.78 in - North 18.4 mph 21.9 mph N/A   Unknown
1:51 PM 15.1 °F -1.6 °F 12.0 °F 88% 29.80 in - North 18.4 mph 25.3 mph 0.01 in   Unknown
2:51 PM 15.1 °F -2.9 °F 10.9 °F 84% 29.82 in - North 21.9 mph 28.8 mph N/A   Unknown
3:51 PM 12.9 °F -2.2 °F 7.0 °F 77% 29.84 in - NNW 13.8 mph 26.5 mph N/A   Unknown
4:51 PM 12.0 °F -6.0 °F 3.9 °F 70% 29.88 in - NNW 19.6 mph 25.3 mph N/A   Unknown
5:51 PM 15.1 °F -4.0 °F 10.9 °F 84% 29.89 in - North 25.3 mph 32.2 mph N/A   Unknown
6:51 PM 14.0 °F -5.5 °F 10.0 °F 84% 29.93 in - North 25.3 mph 34.5 mph N/A   Unknown
7:51 PM 12.9 °F -6.5 °F 7.0 °F 77% 29.95 in - North 24.2 mph 38.0 mph N/A   Unknown
8:51 PM 12.0 °F -9.5 °F 8.1 °F 84% 29.98 in - North 29.9 mph 38.0 mph N/A   Unknown
9:51 PM 10.9 °F -9.6 °F 5.0 °F 77% 30.01 in - North 25.3 mph 32.2 mph N/A   Unknown
10:51 PM 10.9 °F -9.6 °F 7.0 °F 84% 30.03 in - North 25.3 mph 33.4 mph N/A   Unknown
11:51 PM 10.0 °F -11.1 °F 6.1 °F 84% 30.05 in - North 26.5 mph 29.9 mph N/A   Unknown